Weather History for KBJC - April, 2014

Change the Weather History Date:

Wednesday, April 23, 2014

  Actual Average Record
Temperature  
Mean Temperature 54 °F -  
Max Temperature 68 °F 57 °F 80 °F (2012)
Min Temperature 41 °F 36 °F 19 °F (2013)
Degree Days  
Heating Degree Days 10    
Growing Degree Days 4 (Base 50)    
Moisture  
Dew Point 33 °F    
Average Humidity 46    
Maximum Humidity 87    
Minimum Humidity 21    
Precipitation  
Precipitation 0.00 in - - ()
Sea Level Pressure  
Sea Level Pressure 29.67 in    
Wind  
Wind Speed 10 mph (SW)    
Max Wind Speed 21 mph    
Max Gust Speed 30 mph    
Visibility 10 miles    
Events Rain    
Averages and records for this station are not official NWS values.
T = Trace of Precipitation, MM = Missing Value Source: NWS Daily Summary

Daily Weather History Graph

Daily Weather History Graph

Search for Another Location

Airport or City:

Trip Planner

Search our weather history database for the weather conditions in past years. The results will help you decide how hot, cold, wet, or windy it might be!

Date:

Astronomy

Apr. 23, 2014 Rise Set
Actual Time 6:11 AM MDT 7:46 PM MDT
Civil Twilight 5:42 AM MDT 8:15 PM MDT
Nautical Twilight 5:08 AM MDT 8:50 PM MDT
Astronomical Twilight 4:31 AM MDT 9:27 PM MDT
Moon 2:44 AM MDT (4/23) 1:58 PM MDT (4/23)
Length of Visible Light 14h 33m
Length of Day
13h 35m
Waning Crescent, 34% of the Moon is Illuminated
Apr 23
Waning Crescent
Apr 29
New
May 6
First Quarter
May 14
Full
May 21
Last Quarter

Hourly Weather History & Observations

Time (MDT) Temp. Windchill Dew Point Humidity Pressure Visibility Wind Dir Wind Speed Gust Speed Precip Events Conditions
12:15 AM 59.0 °F - 35.6 °F 42% 29.67 in 10.0 mi South 8.1 mph - N/A   Clear
12:35 AM 57.2 °F - 35.6 °F 44% 29.66 in 10.0 mi South 10.4 mph - N/A   Clear
12:55 AM 59.0 °F - 35.6 °F 42% 29.65 in 10.0 mi SSW 11.5 mph - N/A   Clear
1:15 AM 57.2 °F - 35.6 °F 44% 29.65 in 10.0 mi SSW 8.1 mph - N/A   Clear
1:35 AM 57.2 °F - 33.8 °F 41% 29.64 in 10.0 mi SW 9.2 mph - N/A   Clear
1:55 AM 55.4 °F - 33.8 °F 44% 29.64 in 10.0 mi SW 10.4 mph - N/A   Clear
2:15 AM 55.4 °F - 33.8 °F 44% 29.64 in 10.0 mi SW 10.4 mph - N/A   Scattered Clouds
2:35 AM 55.4 °F - 33.8 °F 44% 29.63 in 10.0 mi SW 9.2 mph - N/A   Clear
2:55 AM 57.2 °F - 32.0 °F 38% 29.62 in 10.0 mi SW 9.2 mph - N/A   Clear
3:15 AM 53.6 °F - 33.8 °F 47% 29.61 in 10.0 mi SW 6.9 mph - N/A   Clear
3:35 AM 55.4 °F - 33.8 °F 44% 29.61 in 10.0 mi South 10.4 mph - N/A   Clear
3:55 AM 55.4 °F - 32.0 °F 41% 29.60 in 10.0 mi SW 8.1 mph - N/A   Clear
4:15 AM 53.6 °F - 33.8 °F 47% 29.59 in 10.0 mi SSW 9.2 mph - N/A   Clear
4:35 AM 55.4 °F - 32.0 °F 41% 29.58 in 10.0 mi SW 6.9 mph - N/A   Clear
4:55 AM 51.8 °F - 33.8 °F 50% 29.58 in 10.0 mi South 8.1 mph - N/A   Clear
5:15 AM 51.8 °F - 33.8 °F 50% 29.59 in 10.0 mi SSW 6.9 mph - N/A   Clear
5:35 AM 51.8 °F - 32.0 °F 47% 29.59 in 10.0 mi South 5.8 mph - N/A   Clear
5:45 AM 53.6 °F - 32.0 °F 44% 29.60 in 30.0 mi SW 6.9 mph - N/A   Mostly Cloudy
5:55 AM 51.8 °F - 32.0 °F 47% 29.60 in 10.0 mi South 5.8 mph - N/A   Clear
6:47 AM 53.6 °F - 30.2 °F 41% 29.62 in 40.0 mi West 8.1 mph - N/A   Mostly Cloudy
7:53 AM 62.6 °F - 26.6 °F 26% 29.65 in 60.0 mi SSW 15.0 mph 25.3 mph N/A   Scattered Clouds
8:53 AM 62.6 °F - 32.0 °F 32% 29.65 in 60.0 mi WNW 16.1 mph 24.2 mph N/A   Partly Cloudy
9:46 AM 62.6 °F - 32.0 °F 32% 29.65 in 60.0 mi WNW 19.6 mph 24.2 mph N/A   Scattered Clouds
11:25 AM 68.0 °F - 26.6 °F 21% 29.63 in 60.0 mi East 11.5 mph 19.6 mph N/A   Scattered Clouds
11:50 AM 68.0 °F - 28.4 °F 23% 29.63 in 60.0 mi NW 13.8 mph 20.7 mph N/A   Scattered Clouds
12:47 PM 68.0 °F - 28.4 °F 23% 29.61 in 60.0 mi West 9.2 mph - N/A   Scattered Clouds
1:50 PM 68.0 °F - 30.2 °F 24% 29.61 in 60.0 mi WNW 13.8 mph 18.4 mph N/A   Mostly Cloudy
2:53 PM 66.2 °F - 28.4 °F 24% 29.61 in 60.0 mi West 12.7 mph 18.4 mph N/A   Mostly Cloudy
3:57 PM 66.2 °F - 28.4 °F 24% 29.60 in 50.0 mi WNW 12.7 mph 20.7 mph N/A   Mostly Cloudy
4:47 PM 62.6 °F - 26.6 °F 26% 29.60 in 40.0 mi West 12.7 mph 29.9 mph N/A   Mostly Cloudy
5:49 PM 57.2 °F - 33.8 °F 41% 29.67 in 15.0 mi NE 20.7 mph 28.8 mph N/A   Overcast
6:45 PM 50.0 °F - 39.2 °F 66% 29.74 in 10.0 mi NE 20.7 mph - N/A Rain Light Rain
7:50 PM 46.4 °F 40.1 °F 39.2 °F 76% 29.80 in 10.0 mi ENE 15.0 mph 23.0 mph N/A Rain Light Rain
8:50 PM 44.6 °F 39.7 °F 39.2 °F 81% 29.85 in 10.0 mi SE 9.2 mph - N/A   Mostly Cloudy
9:45 PM 44.6 °F 39.7 °F 39.2 °F 81% 29.88 in 10.0 mi SSE 9.2 mph - N/A   Mostly Cloudy
11:15 PM 42.8 °F 36.6 °F 37.4 °F 81% 29.92 in 10.0 mi SSE 11.5 mph - N/A   Scattered Clouds
11:35 PM 41.0 °F 34.3 °F 37.4 °F 87% 29.94 in 10.0 mi SSE 11.5 mph - N/A   Scattered Clouds
11:55 PM 41.0 °F 34.3 °F 37.4 °F 87% 29.94 in 10.0 mi SSE 11.5 mph 16.1 mph N/A   Clear